Location: Wildcat Hills Observatory
(41.6350°N, 103.6812°W)
Time: 19:40:43
(UTC-07:00)

Helios 1A - Pass Details

Date: 23 June 2018
Orbit: 585 x 604 km, 98.2° (Epoch: 14 September)

Event Time Altitude Azimuth Distance (km) Brightness Sun altitude
Exits shadow 22:05:03 22° 140° (SE) 1,297 4.1 -13.7°
Maximum altitude 22:07:28 51° 72° (ENE) 749 3.3 -14.0°
Drops below altitude 10° 22:11:34 10° 357° (N) 1,945 6.4 -14.5°
Sets 22:13:47 0° 353° (N) 2,855 7.5 -14.8°
